Radiation Dose at Monitoring Post of Fukushima Daini Nuclear Power Station
Date,Time,MP-1(microSv/h),MP-2(microSv/h),MP-3(microSv/h),MP-4(microSv/h),MP-5(microSv/h),MP-6(microSv/h),MP-7(microSv/h),Wind Direction,Wind Velocity(m/s),Rain
2017/06/22,00:00,0.336,0.212,0.346,0.324,0.319,0.169,0.105,west-northwest,2.6,No
2017/06/22,00:10,0.339,0.212,0.348,0.326,0.315,0.168,0.106,west-northwest,5.6,No
2017/06/22,00:20,0.334,0.212,0.347,0.325,0.318,0.169,0.106,west-northwest,9.2,No
2017/06/22,00:30,0.341,0.212,0.348,0.325,0.319,0.169,0.105,west-northwest,9.5,No
2017/06/22,00:40,0.337,0.212,0.350,0.327,0.317,0.170,0.105,west-northwest,10.7,No
2017/06/22,00:50,0.336,0.211,0.347,0.326,0.320,0.170,0.106,west,10.6,No
2017/06/22,01:00,0.340,0.212,0.350,0.329,0.317,0.171,0.105,west,11.0,No
2017/06/22,01:10,0.338,0.212,0.347,0.325,0.318,0.171,0.105,west-northwest,7.1,No
2017/06/22,01:20,0.341,0.212,0.349,0.327,0.318,0.169,0.105,west,7.7,No
2017/06/22,01:30,0.340,0.214,0.350,0.326,0.316,0.171,0.105,west-northwest,11.2,No
2017/06/22,01:40,0.339,0.211,0.348,0.325,0.319,0.172,0.106,west-northwest,11.4,No
2017/06/22,01:50,0.341,0.214,0.351,0.329,0.318,0.170,0.106,west-northwest,8.9,No
2017/06/22,02:00,0.339,0.213,0.347,0.326,0.318,0.172,0.105,west,9.5,No
2017/06/22,02:10,0.340,0.213,0.351,0.328,0.318,0.171,0.106,west-northwest,7.6,No
2017/06/22,02:20,0.343,0.214,0.350,0.327,0.316,0.170,0.105,west,5.3,No
2017/06/22,02:30,0.340,0.213,0.349,0.326,0.321,0.172,0.106,west-northwest,0.7,No
2017/06/22,02:40,0.342,0.214,0.352,0.329,0.318,0.170,0.106,north,3.0,No
2017/06/22,02:50,0.344,0.213,0.348,0.327,0.319,0.172,0.105,north,2.7,No
2017/06/22,03:00,0.342,0.214,0.351,0.329,0.320,0.171,0.106,north-northwest,4.4,No
2017/06/22,03:10,0.345,0.213,0.350,0.328,0.318,0.172,0.105,northwest,6.5,No
2017/06/22,03:20,0.340,0.213,0.351,0.328,0.322,0.172,0.106,northwest,6.6,No
2017/06/22,03:30,0.343,0.215,0.352,0.327,0.316,0.171,0.106,northwest,7.8,No
2017/06/22,03:40,0.343,0.214,0.350,0.329,0.320,0.173,0.105,north-northwest,4.0,No
2017/06/22,03:50,0.340,0.216,0.352,0.329,0.319,0.170,0.106,northwest,4.3,No
2017/06/22,04:00,0.344,0.214,0.350,0.326,0.319,0.173,0.105,northwest,3.2,No
2017/06/22,04:10,0.341,0.214,0.353,0.330,0.321,0.171,0.106,northwest,3.3,No
2017/06/22,04:20,0.342,0.214,0.351,0.329,0.318,0.172,0.106,northwest,4.1,No
2017/06/22,04:30,0.343,0.215,0.351,0.329,0.319,0.172,0.106,northwest,5.5,No
2017/06/22,04:40,0.340,0.215,0.352,0.330,0.319,0.173,0.106,northwest,5.5,No
2017/06/22,04:50,0.345,0.214,0.350,0.326,0.319,0.171,0.105,west-northwest,7.0,No
2017/06/22,05:00,0.344,0.215,0.353,0.330,0.321,0.173,0.106,northwest,6.9,No
2017/06/22,05:10,0.343,0.213,0.350,0.327,0.317,0.173,0.105,northwest,3.6,No
2017/06/22,05:20,0.347,0.215,0.351,0.330,0.321,0.172,0.107,north-northwest,3.9,No
2017/06/22,05:30,0.341,0.214,0.353,0.327,0.319,0.173,0.105,northwest,3.6,No
2017/06/22,05:40,0.345,0.215,0.350,0.332,0.319,0.172,0.106,northwest,3.6,No
2017/06/22,05:50,0.344,0.215,0.353,0.330,0.322,0.172,0.107,west-northwest,3.1,No
2017/06/22,06:00,0.342,0.214,0.350,0.327,0.317,0.172,0.106,northwest,4.6,No
2017/06/22,06:10,0.345,0.215,0.353,0.330,0.320,0.173,0.106,west-northwest,5.2,No
2017/06/22,06:20,0.343,0.214,0.352,0.327,0.320,0.173,0.105,northwest,3.9,No
2017/06/22,06:30,0.346,0.215,0.351,0.328,0.317,0.174,0.105,west-northwest,3.0,No
2017/06/22,06:40,0.343,0.215,0.353,0.330,0.322,0.172,0.106,west-northwest,3.9,No
2017/06/22,06:50,0.342,0.214,0.350,0.327,0.319,0.171,0.105,northwest,6.4,No
2017/06/22,07:00,0.346,0.215,0.353,0.330,0.317,0.173,0.107,west-northwest,9.1,No
2017/06/22,07:10,0.343,0.214,0.351,0.326,0.319,0.172,0.106,west-northwest,9.0,No
2017/06/22,07:20,0.344,0.215,0.353,0.330,0.316,0.172,0.107,west-northwest,9.2,No
2017/06/22,07:30,0.344,0.214,0.353,0.329,0.321,0.173,0.106,west-northwest,8.9,No
2017/06/22,07:40,0.343,0.214,0.350,0.328,0.320,0.172,0.105,west-northwest,8.0,No
2017/06/22,07:50,0.345,0.214,0.354,0.331,0.320,0.173,0.106,west-northwest,8.0,No
2017/06/22,08:00,0.344,0.214,0.351,0.326,0.321,0.172,0.106,west-northwest,7.8,No
2017/06/22,08:10,0.344,0.216,0.352,0.329,0.317,0.172,0.105,west-northwest,7.4,No
2017/06/22,08:20,0.345,0.215,0.354,0.330,0.319,0.173,0.106,northwest,5.6,No
2017/06/22,08:30,0.343,0.214,0.351,0.328,0.320,0.172,0.106,west-northwest,5.6,No
2017/06/22,08:40,0.347,0.216,0.354,0.330,0.318,0.173,0.107,west-northwest,5.0,No
2017/06/22,08:50,0.344,0.214,0.352,0.329,0.321,0.173,0.107,west-northwest,4.3,No
2017/06/22,09:00,0.342,0.214,0.352,0.328,0.320,0.173,0.107,west-northwest,5.2,No
2017/06/22,09:10,0.345,0.216,0.355,0.332,0.318,0.172,0.106,west-northwest,7.2,No
2017/06/22,09:20,0.344,0.215,0.352,0.330,0.321,0.173,0.106,west-northwest,6.3,No
2017/06/22,09:30,0.343,0.213,0.350,0.327,0.321,0.173,0.107,west-northwest,5.1,No
2017/06/22,09:40,0.348,0.214,0.354,0.329,0.318,0.173,0.106,northwest,4.0,No
2017/06/22,09:50,0.344,0.215,0.354,0.332,0.315,0.173,0.106,northwest,2.7,No
2017/06/22,10:00,0.343,0.216,0.350,0.328,0.321,0.175,0.106,northwest,3.4,No
2017/06/22,10:10,0.345,0.214,0.355,0.329,0.323,0.174,0.105,north-northwest,2.8,No
2017/06/22,10:20,0.347,0.214,0.356,0.328,0.321,0.174,0.107,south-southeast,1.3,No
2017/06/22,10:30,0.345,0.214,0.355,0.328,0.320,0.173,0.107,northwest,5.7,No
2017/06/22,10:40,0.344,0.215,0.352,0.328,0.319,0.173,0.106,northwest,6.6,No
2017/06/22,10:50,0.343,0.214,0.351,0.328,0.318,0.174,0.106,northwest,5.9,No
2017/06/22,11:00,0.343,0.214,0.350,0.329,0.319,0.174,0.107,northwest,8.6,No
2017/06/22,11:10,0.343,0.215,0.353,0.330,0.318,0.175,0.107,northwest,7.9,No
2017/06/22,11:20,0.342,0.215,0.352,0.330,0.320,0.174,0.106,northwest,6.1,No
2017/06/22,11:30,0.341,0.215,0.352,0.330,0.319,0.174,0.107,north-northwest,6.4,No
2017/06/22,11:40,0.344,0.216,0.353,0.331,0.319,0.176,0.107,northwest,5.8,No
2017/06/22,11:50,0.344,0.216,0.354,0.331,0.319,0.175,0.107,north-northwest,5.2,No
2017/06/22,12:00,0.343,0.215,0.353,0.331,0.319,0.175,0.107,northwest,5.5,No
2017/06/22,12:10,0.343,0.215,0.354,0.332,0.320,0.175,0.107,west-northwest,4.2,No
2017/06/22,12:20,0.346,0.215,0.355,0.332,0.322,0.176,0.107,northwest,7.0,No
2017/06/22,12:30,0.344,0.215,0.355,0.332,0.321,0.175,0.107,northwest,6.4,No
2017/06/22,12:40,0.345,0.216,0.354,0.331,0.321,0.176,0.107,northwest,4.2,No
2017/06/22,12:50,0.344,0.215,0.355,0.332,0.321,0.175,0.108,northwest,3.1,No
2017/06/22,13:00,0.345,0.217,0.355,0.333,0.321,0.175,0.108,north-northwest,5.9,No
2017/06/22,13:10,0.345,0.216,0.355,0.333,0.322,0.176,0.108,northwest,8.7,No
2017/06/22,13:20,0.346,0.217,0.356,0.332,0.323,0.175,0.108,northwest,5.0,No
2017/06/22,13:30,0.346,0.217,0.356,0.333,0.322,0.176,0.107,west,3.3,No
2017/06/22,13:40,0.345,0.217,0.356,0.333,0.322,0.175,0.107,west,3.3,No
2017/06/22,13:50,0.347,0.217,0.356,0.332,0.322,0.176,0.107,west-northwest,4.0,No
2017/06/22,14:00,0.347,0.218,0.357,0.333,0.322,0.176,0.108,west-northwest,4.3,No
2017/06/22,14:10,0.346,0.218,0.357,0.333,0.324,0.176,0.108,west-northwest,4.8,No
2017/06/22,14:20,0.347,0.216,0.357,0.334,0.324,0.176,0.107,northwest,4.1,No
2017/06/22,14:30,0.346,0.217,0.358,0.333,0.324,0.176,0.107,northwest,6.7,No
2017/06/22,14:40,0.346,0.218,0.357,0.333,0.322,0.175,0.107,north-northwest,5.7,No
2017/06/22,14:50,0.347,0.217,0.358,0.333,0.322,0.176,0.108,west-northwest,4.6,No
2017/06/22,15:00,0.346,0.218,0.357,0.333,0.322,0.176,0.107,northwest,4.7,No
2017/06/22,15:10,0.347,0.217,0.355,0.331,0.321,0.176,0.109,west-northwest,5.5,No
2017/06/22,15:20,0.347,0.218,0.358,0.332,0.322,0.176,0.108,northwest,6.0,No
2017/06/22,15:30,0.347,0.217,0.357,0.331,0.322,0.176,0.108,northwest,5.0,No
2017/06/22,15:40,0.350,0.216,0.358,0.332,0.321,0.176,0.108,northwest,6.0,No
2017/06/22,15:50,0.350,0.216,0.357,0.331,0.321,0.176,0.107,northwest,6.4,No
2017/06/22,16:00,0.349,0.215,0.356,0.337,0.321,0.176,0.108,north-northwest,4.8,No
2017/06/22,16:10,0.347,0.215,0.354,0.335,0.321,0.175,0.107,north-northwest,3.1,No
2017/06/22,16:20,0.346,0.218,0.357,0.335,0.322,0.175,0.107,west,3.1,No
2017/06/22,16:30,0.350,0.218,0.360,0.331,0.320,0.175,0.109,west-southwest,1.4,No
2017/06/22,16:40,0.351,0.218,0.357,0.333,0.320,0.175,0.108,west-northwest,2.9,No
2017/06/22,16:50,0.348,0.217,0.356,0.338,0.321,0.176,0.108,west-northwest,3.8,No
2017/06/22,17:00,0.346,0.216,0.355,0.335,0.325,0.176,0.107,west,3.4,No
2017/06/22,17:10,0.348,0.218,0.361,0.334,0.325,0.176,0.107,northwest,3.1,No
2017/06/22,17:20,0.351,0.219,0.360,0.332,0.324,0.174,0.109,northwest,3.8,No
2017/06/22,17:30,0.350,0.218,0.357,0.335,0.321,0.175,0.109,northwest,3.8,No
2017/06/22,17:40,0.346,0.216,0.356,0.334,0.320,0.177,0.107,northwest,2.9,No
2017/06/22,17:50,0.349,0.220,0.360,0.331,0.325,0.176,0.107,northwest,2.2,No
2017/06/22,18:00,0.352,0.218,0.360,0.337,0.325,0.174,0.109,west-northwest,1.6,No
2017/06/22,18:10,0.347,0.216,0.357,0.336,0.322,0.177,0.107,northwest,0.7,No
2017/06/22,18:20,0.348,0.219,0.361,0.332,0.322,0.176,0.109,west-southwest,0.5,No
2017/06/22,18:30,0.352,0.217,0.361,0.336,0.326,0.176,0.108,north-northeast,0.6,No
2017/06/22,18:40,0.348,0.218,0.356,0.337,0.324,0.177,0.108,north-northwest,0.8,No
2017/06/22,18:50,0.348,0.218,0.361,0.333,0.322,0.176,0.108,-,CALM,No
2017/06/22,19:00,0.352,0.217,0.359,0.336,0.325,0.177,0.108,-,CALM,No
2017/06/22,19:10,0.349,0.220,0.358,0.336,0.322,0.177,0.109,-,CALM,No
2017/06/22,19:20,0.348,0.218,0.360,0.335,0.324,0.176,0.109,-,CALM,No
2017/06/22,19:30,0.351,0.219,0.359,0.337,0.323,0.176,0.108,-,CALM,No
2017/06/22,19:40,0.347,0.218,0.359,0.335,0.320,0.175,0.109,west-southwest,0.8,No
2017/06/22,19:50,0.351,0.218,0.362,0.336,0.325,0.177,0.108,south,0.9,No
2017/06/22,20:00,0.349,0.219,0.358,0.336,0.323,0.176,0.108,south-southwest,0.8,No
2017/06/22,20:10,0.351,0.218,0.360,0.333,0.325,0.177,0.109,-,CALM,No
2017/06/22,20:20,0.352,0.219,0.358,0.337,0.325,0.177,0.108,-,CALM,No
2017/06/22,20:30,0.347,0.216,0.361,0.334,0.322,0.176,0.109,northeast,1.2,No
2017/06/22,20:40,0.351,0.219,0.358,0.337,0.326,0.177,0.108,north-northwest,0.9,No
2017/06/22,20:50,0.348,0.217,0.359,0.336,0.323,0.176,0.109,northeast,0.6,No
2017/06/22,21:00,0.350,0.219,0.361,0.336,0.326,0.176,0.108,southwest,1.1,No
2017/06/22,21:10,0.350,0.217,0.357,0.336,0.324,0.177,0.109,south-southwest,1.6,No
2017/06/22,21:20,0.350,0.220,0.363,0.335,0.323,0.178,0.108,south-southwest,1.5,No
2017/06/22,21:30,0.349,0.218,0.357,0.336,0.324,0.176,0.109,southwest,1.9,No
2017/06/22,21:40,0.349,0.219,0.363,0.335,0.323,0.177,0.109,southwest,1.3,No
2017/06/22,21:50,0.351,0.217,0.359,0.338,0.325,0.177,0.109,southwest,1.3,No
2017/06/22,22:00,0.348,0.220,0.362,0.333,0.321,0.176,0.108,southwest,1.3,No
2017/06/22,22:10,0.351,0.218,0.359,0.338,0.326,0.177,0.109,west-southwest,1.8,No
2017/06/22,22:20,0.349,0.220,0.359,0.334,0.322,0.177,0.108,southwest,2.4,No
2017/06/22,22:30,0.351,0.219,0.359,0.337,0.325,0.177,0.108,south-southwest,2.4,No
2017/06/22,22:40,0.347,0.218,0.360,0.336,0.322,0.177,0.109,south-southwest,2.0,No
2017/06/22,22:50,0.351,0.218,0.360,0.338,0.323,0.177,0.109,south,1.6,No
2017/06/22,23:00,0.349,0.219,0.360,0.333,0.324,0.177,0.109,south,1.8,No
2017/06/22,23:10,0.350,0.217,0.361,0.337,0.324,0.177,0.108,south,2.1,No
2017/06/22,23:20,0.348,0.219,0.359,0.336,0.326,0.178,0.109,southwest,2.2,No
2017/06/22,23:30,0.351,0.219,0.361,0.337,0.323,0.176,0.109,west-southwest,1.3,No
2017/06/22,23:40,0.349,0.218,0.359,0.335,0.325,0.179,0.109,west,1.1,No
2017/06/22,23:50,0.349,0.218,0.360,0.336,0.323,0.177,0.109,west-northwest,1.2,No
